This is the latest recevied weather packets stored in our database for station/object OK2ZAW-19. If no packets are shown the sender has not sent any weather packets the latest 10 day(s).
| Time | Temp. | Humidity | Pressure | Rain* | Wind** | Luminosity | Snow |
|---|---|---|---|---|---|---|---|
| 1777810678 | 21.67° C | 38% | 1017.9 hPa | - | - | 337 W/m² | - |
| 1777810367 | 21.67° C | 36% | 1018 hPa | - | - | 337 W/m² | - |
| 1777810055 | 21.67° C | 37% | 1017.9 hPa | - | - | 337 W/m² | - |
| 1777809743 | 22.22° C | 36% | 1018.1 hPa | - | - | 337 W/m² | - |
| 1777809432 | 22.22° C | 39% | 1018.1 hPa | - | - | 337 W/m² | - |
| 1777809120 | 22.22° C | 40% | 1018.2 hPa | - | - | 336 W/m² | - |
| 1777808808 | 21.67° C | 40% | 1018.3 hPa | - | - | 337 W/m² | - |
| 1777808497 | 21.67° C | 41% | 1018.2 hPa | - | - | 337 W/m² | - |
| 1777808185 | 21.67° C | 40% | 1018.2 hPa | - | - | 337 W/m² | - |
| 1777807873 | 21.11° C | 41% | 1018.3 hPa | - | - | 337 W/m² | - |
| 1777807563 | 21.11° C | 41% | 1018.3 hPa | - | - | 337 W/m² | - |
| 1777807250 | 20.56° C | 40% | 1018.3 hPa | - | - | 337 W/m² | - |
| 1777806939 | 20.56° C | 42% | 1018.3 hPa | - | - | 337 W/m² | - |
| 1777806627 | 20.56° C | 40% | 1018.4 hPa | - | - | 337 W/m² | - |
| 1777806315 | 20.56° C | 41% | 1018.5 hPa | - | - | 337 W/m² | - |
| 1777806004 | 20.56° C | 42% | 1018.6 hPa | - | - | 337 W/m² | - |
| 1777805693 | 21.11° C | 42% | 1018.6 hPa | - | - | 337 W/m² | - |
| 1777805381 | 20.56° C | 42% | 1018.7 hPa | - | - | 335 W/m² | - |
| 1777805069 | 21.11° C | 43% | 1018.6 hPa | - | - | 337 W/m² | - |
| 1777804758 | 20.56° C | 46% | 1018.8 hPa | - | - | 337 W/m² | - |
| 1777804135 | 20° C | 46% | 1018.8 hPa | - | - | 337 W/m² | - |
| 1777803823 | 19.44° C | 46% | 1019 hPa | - | - | 337 W/m² | - |
| 1777802889 | 18.33° C | 50% | 1019.2 hPa | - | - | 337 W/m² | - |
| 1777802578 | 18.33° C | 52% | 1019.2 hPa | - | - | 337 W/m² | - |
| 1777802267 | 17.78° C | 50% | 1019.1 hPa | - | - | 337 W/m² | - |
* Rain since midnight (hover to see other rain measurements)
** Current wind speed in m/s (hover to see current wind gust speed)